Time,TemperatureF,DewpointF,PressureIn,WindDirection,WindDirectionDegrees,WindSpeedMPH,WindSpeedGustMPH,Humidity,HourlyPrecipIn,Conditions,Clouds,dailyrainin,SoftwareType,DateUTC
2013-01-10 00:03:00,49.8,44.2,30.11,East,91,5.0,9.0,81,0.00,,,0.00,LWC2 V0.39 B123,2013-01-10 07:03:00,
2013-01-10 00:08:00,49.7,44.4,30.12,East,84,5.0,7.0,82,0.00,,,0.00,LWC2 V0.39 B123,2013-01-10 07:08:00,
2013-01-10 00:13:00,49.5,44.6,30.12,ENE,78,3.0,8.0,83,0.00,,,0.01,LWC2 V0.39 B123,2013-01-10 07:13:00,
2013-01-10 00:18:00,49.5,44.9,30.12,ENE,77,6.0,8.0,84,0.00,,,0.01,LWC2 V0.39 B123,2013-01-10 07:18:00,
2013-01-10 00:23:00,49.6,45.0,30.11,ENE,77,3.0,12.0,84,0.00,,,0.01,LWC2 V0.39 B123,2013-01-10 07:23:00,
2013-01-10 00:28:00,49.5,45.2,30.11,ENE,71,5.0,8.0,85,0.04,,,0.02,LWC2 V0.39 B123,2013-01-10 07:28:00,
2013-01-10 00:33:00,49.3,45.0,30.11,ENE,78,9.0,12.0,85,0.08,,,0.03,LWC2 V0.39 B123,2013-01-10 07:33:00,
2013-01-10 00:38:00,49.3,45.3,30.11,ENE,70,4.0,11.0,86,0.08,,,0.03,LWC2 V0.39 B123,2013-01-10 07:38:00,
2013-01-10 00:43:00,49.2,45.2,30.11,ESE,113,4.0,11.0,86,0.06,,,0.03,LWC2 V0.39 B123,2013-01-10 07:43:00,
2013-01-10 00:48:00,49.1,45.1,30.11,East,92,4.0,9.0,86,0.04,,,0.03,LWC2 V0.39 B123,2013-01-10 07:48:00,
2013-01-10 00:53:00,49.2,45.2,30.12,East,82,5.0,9.0,86,0.00,,,0.03,LWC2 V0.39 B123,2013-01-10 07:53:00,
2013-01-10 00:58:00,49.3,45.3,30.11,ENE,77,4.0,5.0,86,0.00,,,0.04,LWC2 V0.39 B123,2013-01-10 07:58:00,
2013-01-10 01:03:00,49.3,45.3,30.11,ESE,102,6.0,10.0,86,0.00,,,0.04,LWC2 V0.39 B123,2013-01-10 08:03:00,
2013-01-10 01:08:00,49.5,45.2,30.10,East,81,5.0,8.0,85,0.00,,,0.04,LWC2 V0.39 B123,2013-01-10 08:08:00,
2013-01-10 01:13:00,49.6,45.3,30.10,ESE,105,3.0,6.0,85,0.00,,,0.04,LWC2 V0.39 B123,2013-01-10 08:13:00,
2013-01-10 01:18:00,49.7,45.1,30.10,ENE,72,5.0,7.0,84,0.00,,,0.04,LWC2 V0.39 B123,2013-01-10 08:18:00,
2013-01-10 01:23:00,49.7,45.4,30.10,ESE,103,6.0,8.0,85,0.00,,,0.04,LWC2 V0.39 B123,2013-01-10 08:23:00,
2013-01-10 01:28:00,49.6,45.3,30.10,East,100,7.0,9.0,85,0.00,,,0.04,LWC2 V0.39 B123,2013-01-10 08:28:00,
2013-01-10 01:33:00,49.2,45.5,30.09,ENE,74,7.0,7.0,87,0.00,,,0.05,LWC2 V0.39 B123,2013-01-10 08:33:00,
2013-01-10 01:38:00,48.7,45.6,30.09,ENE,74,6.0,9.0,89,0.11,,,0.06,LWC2 V0.39 B123,2013-01-10 08:38:00,
2013-01-10 01:43:00,48.3,45.5,30.09,ENE,70,6.0,10.0,90,0.10,,,0.06,LWC2 V0.39 B123,2013-01-10 08:43:00,
2013-01-10 01:48:00,48.1,45.6,30.08,ENE,74,4.0,7.0,91,0.05,,,0.06,LWC2 V0.39 B123,2013-01-10 08:48:00,
2013-01-10 01:53:00,48.0,45.8,30.08,East,84,8.0,8.0,92,0.04,,,0.06,LWC2 V0.39 B123,2013-01-10 08:53:00,
2013-01-10 01:58:00,47.9,45.7,30.08,ENE,72,5.0,9.0,92,0.00,,,0.06,LWC2 V0.39 B123,2013-01-10 08:58:00,
2013-01-10 02:03:00,47.9,45.7,30.08,ENE,72,4.0,5.0,92,0.00,,,0.07,LWC2 V0.39 B123,2013-01-10 09:03:00,
2013-01-10 02:08:00,47.9,46.0,30.08,ESE,117,5.0,6.0,93,0.00,,,0.07,LWC2 V0.39 B123,2013-01-10 09:08:00,
2013-01-10 02:13:00,47.9,46.0,30.08,East,100,5.0,7.0,93,0.00,,,0.07,LWC2 V0.39 B123,2013-01-10 09:13:00,
2013-01-10 02:18:00,47.9,46.0,30.07,ESE,110,4.0,4.0,93,0.00,,,0.07,LWC2 V0.39 B123,2013-01-10 09:18:00,
2013-01-10 02:23:00,47.8,45.9,30.07,East,101,3.0,6.0,93,0.00,,,0.07,LWC2 V0.39 B123,2013-01-10 09:23:00,
2013-01-10 02:28:00,47.8,45.9,30.07,East,83,2.0,4.0,93,0.00,,,0.07,LWC2 V0.39 B123,2013-01-10 09:28:00,
2013-01-10 02:33:00,47.8,45.9,30.06,East,81,5.0,6.0,93,0.00,,,0.07,LWC2 V0.39 B123,2013-01-10 09:33:00,
2013-01-10 02:38:00,47.8,45.9,30.06,East,93,5.0,5.0,93,0.00,,,0.07,LWC2 V0.39 B123,2013-01-10 09:38:00,
2013-01-10 02:43:00,47.8,45.9,30.05,East,86,4.0,7.0,93,0.00,,,0.07,LWC2 V0.39 B123,2013-01-10 09:43:00,
2013-01-10 02:48:00,47.8,46.2,30.05,ESE,110,8.0,8.0,94,0.00,,,0.07,LWC2 V0.39 B123,2013-01-10 09:48:00,
2013-01-10 02:53:00,47.9,46.3,30.04,ENE,70,5.0,10.0,94,0.00,,,0.07,LWC2 V0.39 B123,2013-01-10 09:53:00,
2013-01-10 02:58:00,47.9,46.3,30.04,ENE,66,2.0,6.0,94,0.00,,,0.07,LWC2 V0.39 B123,2013-01-10 09:58:00,
2013-01-10 03:03:00,47.8,46.2,30.03,ENE,70,2.0,8.0,94,0.00,,,0.07,LWC2 V0.39 B123,2013-01-10 10:03:00,
2013-01-10 03:08:00,47.7,46.1,30.03,ENE,70,5.0,10.0,94,0.00,,,0.08,LWC2 V0.39 B123,2013-01-10 10:08:00,
2013-01-10 03:13:00,47.8,46.2,30.02,ENE,71,6.0,8.0,94,0.20,,,0.09,LWC2 V0.39 B123,2013-01-10 10:13:00,
2013-01-10 03:18:00,47.8,46.2,30.02,ENE,61,4.0,7.0,94,0.07,,,0.09,LWC2 V0.39 B123,2013-01-10 10:18:00,
2013-01-10 03:23:00,47.8,46.2,30.01,ENE,71,3.0,6.0,94,0.05,,,0.09,LWC2 V0.39 B123,2013-01-10 10:23:00,
2013-01-10 03:28:00,47.8,46.2,30.01,East,84,2.0,7.0,94,0.00,,,0.09,LWC2 V0.39 B123,2013-01-10 10:28:00,
2013-01-10 03:33:00,47.8,46.2,30.00,East,82,4.0,8.0,94,0.00,,,0.09,LWC2 V0.39 B123,2013-01-10 10:33:00,
2013-01-10 03:38:00,47.8,46.4,30.00,East,93,4.0,6.0,95,0.00,,,0.10,LWC2 V0.39 B123,2013-01-10 10:38:00,
2013-01-10 03:43:00,47.8,46.4,30.00,East,95,3.0,7.0,95,0.00,,,0.10,LWC2 V0.39 B123,2013-01-10 10:43:00,
2013-01-10 03:48:00,47.9,46.5,30.00,East,101,4.0,6.0,95,0.00,,,0.10,LWC2 V0.39 B123,2013-01-10 10:48:00,
2013-01-10 03:53:00,47.9,46.5,30.00,East,86,3.0,8.0,95,0.00,,,0.10,LWC2 V0.39 B123,2013-01-10 10:53:00,
2013-01-10 03:58:00,48.0,46.6,30.00,ESE,114,4.0,9.0,95,0.00,,,0.10,LWC2 V0.39 B123,2013-01-10 10:58:00,
2013-01-10 04:03:00,48.0,46.6,30.00,ENE,77,6.0,10.0,95,0.00,,,0.10,LWC2 V0.39 B123,2013-01-10 11:03:00,
2013-01-10 04:08:00,48.0,46.6,29.99,ENE,77,4.0,7.0,95,0.00,,,0.10,LWC2 V0.39 B123,2013-01-10 11:08:00,
2013-01-10 04:13:00,48.0,46.6,29.99,ESE,111,6.0,8.0,95,0.00,,,0.10,LWC2 V0.39 B123,2013-01-10 11:13:00,
2013-01-10 04:18:00,48.0,46.6,29.99,East,101,2.0,7.0,95,0.00,,,0.10,LWC2 V0.39 B123,2013-01-10 11:18:00,
2013-01-10 04:23:00,48.0,46.6,29.99,ENE,76,3.0,5.0,95,0.00,,,0.10,LWC2 V0.39 B123,2013-01-10 11:23:00,
2013-01-10 04:28:00,48.0,46.6,29.99,East,87,6.0,8.0,95,0.00,,,0.10,LWC2 V0.39 B123,2013-01-10 11:28:00,
2013-01-10 04:33:00,48.0,46.6,29.99,East,81,7.0,9.0,95,0.00,,,0.10,LWC2 V0.39 B123,2013-01-10 11:33:00,
2013-01-10 04:38:00,48.1,46.7,29.98,East,88,9.0,10.0,95,0.00,,,0.10,LWC2 V0.39 B123,2013-01-10 11:38:00,
2013-01-10 04:43:00,48.1,47.0,29.98,ESE,111,3.0,6.0,96,0.00,,,0.10,LWC2 V0.39 B123,2013-01-10 11:43:00,
2013-01-10 04:48:00,48.1,47.0,29.98,ENE,68,7.0,7.0,96,0.00,,,0.10,LWC2 V0.39 B123,2013-01-10 11:48:00,
2013-01-10 04:53:00,48.1,47.0,29.98,ENE,73,5.0,8.0,96,0.00,,,0.10,LWC2 V0.39 B123,2013-01-10 11:53:00,
2013-01-10 04:58:00,48.1,47.0,29.98,NE,55,3.0,4.0,96,0.00,,,0.10,LWC2 V0.39 B123,2013-01-10 11:58:00,
2013-01-10 05:03:00,48.1,47.0,29.97,ENE,70,5.0,6.0,96,0.00,,,0.11,LWC2 V0.39 B123,2013-01-10 12:03:00,
2013-01-10 05:08:00,48.1,47.0,29.98,ENE,58,3.0,8.0,96,0.00,,,0.11,LWC2 V0.39 B123,2013-01-10 12:08:00,
2013-01-10 05:13:00,48.1,47.0,29.97,NE,51,6.0,6.0,96,0.00,,,0.11,LWC2 V0.39 B123,2013-01-10 12:13:00,
2013-01-10 05:18:00,48.1,47.0,29.97,NE,49,2.0,7.0,96,0.00,,,0.11,LWC2 V0.39 B123,2013-01-10 12:18:00,
2013-01-10 05:23:00,48.1,47.0,29.97,ENE,71,4.0,5.0,96,0.00,,,0.11,LWC2 V0.39 B123,2013-01-10 12:23:00,
2013-01-10 05:28:00,48.2,47.1,29.98,NE,53,1.0,5.0,96,0.00,,,0.11,LWC2 V0.39 B123,2013-01-10 12:28:00,
2013-01-10 05:33:00,48.2,47.1,29.97,ENE,78,3.0,5.0,96,0.00,,,0.11,LWC2 V0.39 B123,2013-01-10 12:33:00,
2013-01-10 05:38:00,48.2,47.1,29.98,ESE,110,4.0,5.0,96,0.00,,,0.11,LWC2 V0.39 B123,2013-01-10 12:38:00,
2013-01-10 05:43:00,48.2,47.1,29.98,East,81,2.0,5.0,96,0.00,,,0.11,LWC2 V0.39 B123,2013-01-10 12:43:00,
2013-01-10 05:48:00,48.2,47.1,29.98,East,81,3.0,3.0,96,0.00,,,0.11,LWC2 V0.39 B123,2013-01-10 12:48:00,
2013-01-10 05:53:00,48.2,47.1,29.98,ENE,75,1.0,3.0,96,0.00,,,0.11,LWC2 V0.39 B123,2013-01-10 12:53:00,
2013-01-10 05:58:00,48.2,47.1,29.98,East,100,2.0,4.0,96,0.00,,,0.11,LWC2 V0.39 B123,2013-01-10 12:58:00,
2013-01-10 06:03:00,48.3,47.2,29.98,ESE,108,4.0,5.0,96,0.00,,,0.11,LWC2 V0.39 B123,2013-01-10 13:03:00,
2013-01-10 06:08:00,48.3,47.2,29.98,ESE,103,4.0,5.0,96,0.00,,,0.11,LWC2 V0.39 B123,2013-01-10 13:08:00,
2013-01-10 06:13:00,48.3,47.2,29.98,East,98,2.0,4.0,96,0.00,,,0.11,LWC2 V0.39 B123,2013-01-10 13:13:00,
2013-01-10 06:18:00,48.3,47.2,29.98,East,82,2.0,4.0,96,0.00,,,0.11,LWC2 V0.39 B123,2013-01-10 13:18:00,
2013-01-10 06:23:00,48.3,47.2,29.98,ENE,78,3.0,5.0,96,0.00,,,0.11,LWC2 V0.39 B123,2013-01-10 13:23:00,
2013-01-10 06:28:00,48.3,47.2,29.97,East,81,4.0,5.0,96,0.00,,,0.11,LWC2 V0.39 B123,2013-01-10 13:28:00,
2013-01-10 06:33:00,48.3,47.2,29.98,East,91,4.0,5.0,96,0.00,,,0.11,LWC2 V0.39 B123,2013-01-10 13:33:00,
2013-01-10 06:38:00,48.3,47.2,29.97,East,100,3.0,5.0,96,0.00,,,0.11,LWC2 V0.39 B123,2013-01-10 13:38:00,
2013-01-10 06:43:00,48.4,47.3,29.97,East,89,2.0,7.0,96,0.00,,,0.11,LWC2 V0.39 B123,2013-01-10 13:43:00,
2013-01-10 06:48:00,48.4,47.3,29.97,ESE,103,1.0,5.0,96,0.00,,,0.11,LWC2 V0.39 B123,2013-01-10 13:48:00,
2013-01-10 06:53:00,48.3,47.2,29.97,East,86,3.0,5.0,96,0.00,,,0.11,LWC2 V0.39 B123,2013-01-10 13:53:00,
2013-01-10 06:58:00,48.3,47.2,29.97,ESE,113,3.0,5.0,96,0.00,,,0.11,LWC2 V0.39 B123,2013-01-10 13:58:00,
2013-01-10 07:03:00,48.3,47.2,29.97,East,96,3.0,3.0,96,0.00,,,0.11,LWC2 V0.39 B123,2013-01-10 14:03:00,
2013-01-10 07:08:00,48.4,47.3,29.97,ESE,110,3.0,5.0,96,0.00,,,0.11,LWC2 V0.39 B123,2013-01-10 14:08:00,
2013-01-10 07:13:00,48.4,47.3,29.97,East,83,4.0,5.0,96,0.00,,,0.11,LWC2 V0.39 B123,2013-01-10 14:13:00,
2013-01-10 07:18:00,48.4,47.3,29.96,ENE,64,2.0,5.0,96,0.00,,,0.11,LWC2 V0.39 B123,2013-01-10 14:18:00,
2013-01-10 07:23:00,48.5,47.4,29.96,ESE,103,3.0,8.0,96,0.00,,,0.11,LWC2 V0.39 B123,2013-01-10 14:23:00,
2013-01-10 07:28:00,48.5,47.4,29.96,ESE,120,2.0,4.0,96,0.00,,,0.11,LWC2 V0.39 B123,2013-01-10 14:28:00,
2013-01-10 07:33:00,48.5,47.4,29.96,ESE,113,3.0,6.0,96,0.00,,,0.11,LWC2 V0.39 B123,2013-01-10 14:33:00,
2013-01-10 07:38:00,48.4,47.3,29.96,East,79,3.0,3.0,96,0.00,,,0.11,LWC2 V0.39 B123,2013-01-10 14:38:00,
2013-01-10 07:43:00,48.4,47.3,29.95,East,101,3.0,6.0,96,0.00,,,0.11,LWC2 V0.39 B123,2013-01-10 14:43:00,
2013-01-10 07:48:00,48.5,47.7,29.96,ESE,102,2.0,6.0,97,0.00,,,0.11,LWC2 V0.39 B123,2013-01-10 14:48:00,
2013-01-10 07:53:00,48.5,47.7,29.96,East,92,4.0,5.0,97,0.00,,,0.11,LWC2 V0.39 B123,2013-01-10 14:53:00,
2013-01-10 07:58:00,48.6,47.8,29.95,East,92,3.0,4.0,97,0.00,,,0.11,LWC2 V0.39 B123,2013-01-10 14:58:00,
2013-01-10 08:03:00,48.6,47.8,29.95,ENE,75,3.0,7.0,97,0.00,,,0.11,LWC2 V0.39 B123,2013-01-10 15:03:00,
2013-01-10 08:08:00,48.7,47.9,29.95,ESE,117,4.0,6.0,97,0.00,,,0.11,LWC2 V0.39 B123,2013-01-10 15:08:00,
2013-01-10 08:13:00,48.7,47.9,29.94,ENE,70,5.0,8.0,97,0.00,,,0.11,LWC2 V0.39 B123,2013-01-10 15:13:00,
2013-01-10 08:18:00,48.8,48.0,29.94,ESE,117,3.0,6.0,97,0.00,,,0.11,LWC2 V0.39 B123,2013-01-10 15:18:00,
2013-01-10 08:23:00,48.8,48.0,29.94,ESE,114,2.0,6.0,97,0.00,,,0.11,LWC2 V0.39 B123,2013-01-10 15:23:00,
2013-01-10 08:28:00,49.0,48.2,29.93,ESE,117,4.0,4.0,97,0.00,,,0.11,LWC2 V0.39 B123,2013-01-10 15:28:00,
2013-01-10 08:33:00,49.1,48.3,29.93,ENE,71,4.0,8.0,97,0.00,,,0.11,LWC2 V0.39 B123,2013-01-10 15:33:00,
2013-01-10 08:38:00,49.1,48.3,29.92,East,90,4.0,6.0,97,0.00,,,0.11,LWC2 V0.39 B123,2013-01-10 15:38:00,
2013-01-10 08:43:00,49.2,48.4,29.92,ESE,113,4.0,6.0,97,0.00,,,0.11,LWC2 V0.39 B123,2013-01-10 15:43:00,
2013-01-10 08:48:00,49.3,48.5,29.92,ESE,113,4.0,8.0,97,0.00,,,0.11,LWC2 V0.39 B123,2013-01-10 15:48:00,
2013-01-10 08:53:00,49.4,48.6,29.93,ENE,77,6.0,6.0,97,0.00,,,0.11,LWC2 V0.39 B123,2013-01-10 15:53:00,
2013-01-10 08:58:00,49.5,48.7,29.93,ESE,121,5.0,8.0,97,0.00,,,0.11,LWC2 V0.39 B123,2013-01-10 15:58:00,
2013-01-10 09:03:00,49.6,48.8,29.93,ESE,117,3.0,7.0,97,0.00,,,0.11,LWC2 V0.39 B123,2013-01-10 16:03:00,
2013-01-10 09:08:00,49.6,48.8,29.93,ESE,120,4.0,8.0,97,0.00,,,0.11,LWC2 V0.39 B123,2013-01-10 16:08:00,
2013-01-10 09:13:00,49.7,48.9,29.92,East,81,3.0,6.0,97,0.00,,,0.11,LWC2 V0.39 B123,2013-01-10 16:13:00,
2013-01-10 09:18:00,49.8,49.0,29.92,ESE,113,1.0,5.0,97,0.00,,,0.11,LWC2 V0.39 B123,2013-01-10 16:18:00,
2013-01-10 09:23:00,49.9,49.1,29.92,ESE,111,6.0,6.0,97,0.00,,,0.11,LWC2 V0.39 B123,2013-01-10 16:23:00,
2013-01-10 09:28:00,50.0,49.2,29.91,ESE,115,5.0,5.0,97,0.00,,,0.11,LWC2 V0.39 B123,2013-01-10 16:28:00,
2013-01-10 09:33:00,50.0,49.2,29.92,ESE,105,4.0,7.0,97,0.00,,,0.11,LWC2 V0.39 B123,2013-01-10 16:33:00,
2013-01-10 09:38:00,50.1,49.3,29.92,East,95,5.0,6.0,97,0.00,,,0.11,LWC2 V0.39 B123,2013-01-10 16:38:00,
2013-01-10 09:43:00,50.2,49.4,29.92,SE,132,3.0,3.0,97,0.00,,,0.11,LWC2 V0.39 B123,2013-01-10 16:43:00,
2013-01-10 09:48:00,50.3,49.5,29.92,ESE,117,4.0,5.0,97,0.00,,,0.11,LWC2 V0.39 B123,2013-01-10 16:48:00,
2013-01-10 09:53:00,50.4,49.6,29.91,East,96,4.0,7.0,97,0.00,,,0.11,LWC2 V0.39 B123,2013-01-10 16:53:00,
2013-01-10 09:58:00,50.7,49.9,29.91,East,94,3.0,6.0,97,0.00,,,0.11,LWC2 V0.39 B123,2013-01-10 16:58:00,
2013-01-10 10:03:00,50.8,50.0,29.91,East,99,1.0,2.0,97,0.00,,,0.11,LWC2 V0.39 B123,2013-01-10 17:03:00,
2013-01-10 10:08:00,50.8,50.0,29.91,SE,126,1.0,2.0,97,0.00,,,0.11,LWC2 V0.39 B123,2013-01-10 17:08:00,
2013-01-10 10:13:00,50.9,50.1,29.91,ESE,111,2.0,4.0,97,0.00,,,0.11,LWC2 V0.39 B123,2013-01-10 17:13:00,
2013-01-10 10:18:00,51.2,50.4,29.91,ESE,105,4.0,4.0,97,0.00,,,0.11,LWC2 V0.39 B123,2013-01-10 17:18:00,
2013-01-10 10:23:00,51.6,50.8,29.90,ESE,114,1.0,4.0,97,0.00,,,0.11,LWC2 V0.39 B123,2013-01-10 17:23:00,
2013-01-10 10:28:00,51.9,51.1,29.89,ESE,110,3.0,4.0,97,0.00,,,0.11,LWC2 V0.39 B123,2013-01-10 17:28:00,
2013-01-10 10:33:00,51.9,51.1,29.89,ESE,117,1.0,4.0,97,0.00,,,0.11,LWC2 V0.39 B123,2013-01-10 17:33:00,
2013-01-10 10:38:00,52.1,51.3,29.89,ESE,122,3.0,5.0,97,0.00,,,0.11,LWC2 V0.39 B123,2013-01-10 17:38:00,
2013-01-10 10:43:00,52.4,51.6,29.89,SE,125,6.0,6.0,97,0.00,,,0.11,LWC2 V0.39 B123,2013-01-10 17:43:00,
2013-01-10 10:48:00,52.8,52.0,29.89,SE,127,2.0,3.0,97,0.00,,,0.11,LWC2 V0.39 B123,2013-01-10 17:48:00,
2013-01-10 10:53:00,53.0,52.2,29.89,ESE,118,3.0,5.0,97,0.00,,,0.11,LWC2 V0.39 B123,2013-01-10 17:53:00,
2013-01-10 10:58:00,53.1,52.3,29.88,ESE,120,4.0,5.0,97,0.00,,,0.11,LWC2 V0.39 B123,2013-01-10 17:58:00,
2013-01-10 11:03:00,53.1,52.3,29.88,SE,143,6.0,8.0,97,0.00,,,0.11,LWC2 V0.39 B123,2013-01-10 18:03:00,
2013-01-10 11:08:00,53.2,52.4,29.88,SSE,153,2.0,6.0,97,0.00,,,0.11,LWC2 V0.39 B123,2013-01-10 18:08:00,
2013-01-10 11:13:00,53.3,52.5,29.87,ESE,122,4.0,7.0,97,0.00,,,0.11,LWC2 V0.39 B123,2013-01-10 18:13:00,
2013-01-10 11:18:00,53.5,52.7,29.87,SSE,156,1.0,3.0,97,0.00,,,0.11,LWC2 V0.39 B123,2013-01-10 18:18:00,
2013-01-10 11:23:00,53.6,52.8,29.86,East,99,2.0,2.0,97,0.00,,,0.11,LWC2 V0.39 B123,2013-01-10 18:23:00,
2013-01-10 11:28:00,53.9,53.1,29.86,SSE,155,1.0,5.0,97,0.00,,,0.11,LWC2 V0.39 B123,2013-01-10 18:28:00,
2013-01-10 11:33:00,54.0,53.2,29.86,SE,141,0.0,3.0,97,0.00,,,0.11,LWC2 V0.39 B123,2013-01-10 18:33:00,
2013-01-10 11:38:00,54.1,53.3,29.85,SE,141,4.0,4.0,97,0.00,,,0.11,LWC2 V0.39 B123,2013-01-10 18:38:00,
2013-01-10 11:43:00,54.3,53.5,29.85,SE,125,1.0,2.0,97,0.00,,,0.11,LWC2 V0.39 B123,2013-01-10 18:43:00,
2013-01-10 11:48:00,54.3,53.5,29.84,SSE,155,1.0,4.0,97,0.00,,,0.11,LWC2 V0.39 B123,2013-01-10 18:48:00,
2013-01-10 11:53:00,54.5,53.7,29.83,ESE,108,1.0,3.0,97,0.00,,,0.11,LWC2 V0.39 B123,2013-01-10 18:53:00,
2013-01-10 11:58:00,54.6,53.8,29.83,SE,125,1.0,4.0,97,0.00,,,0.11,LWC2 V0.39 B123,2013-01-10 18:58:00,
2013-01-10 12:03:00,54.8,54.0,29.83,SSE,159,0.0,2.0,97,0.00,,,0.11,LWC2 V0.39 B123,2013-01-10 19:03:00,
2013-01-10 12:08:00,55.0,54.2,29.83,SSE,158,1.0,3.0,97,0.00,,,0.11,LWC2 V0.39 B123,2013-01-10 19:08:00,
2013-01-10 12:13:00,55.1,54.3,29.83,SSE,148,0.0,3.0,97,0.00,,,0.11,LWC2 V0.39 B123,2013-01-10 19:13:00,
2013-01-10 12:18:00,55.3,54.5,29.82,SE,138,0.0,1.0,97,0.00,,,0.11,LWC2 V0.39 B123,2013-01-10 19:18:00,
2013-01-10 12:23:00,55.4,54.6,29.82,ESE,120,3.0,3.0,97,0.00,,,0.11,LWC2 V0.39 B123,2013-01-10 19:23:00,
2013-01-10 12:28:00,55.5,54.7,29.81,SE,136,3.0,4.0,97,0.00,,,0.11,LWC2 V0.39 B123,2013-01-10 19:28:00,
2013-01-10 12:33:00,55.8,55.0,29.81,ESE,120,2.0,3.0,97,0.00,,,0.11,LWC2 V0.39 B123,2013-01-10 19:33:00,
2013-01-10 12:38:00,55.9,55.1,29.81,ESE,122,4.0,5.0,97,0.00,,,0.11,LWC2 V0.39 B123,2013-01-10 19:38:00,
2013-01-10 12:43:00,55.9,55.1,29.80,SSE,167,1.0,3.0,97,0.00,,,0.11,LWC2 V0.39 B123,2013-01-10 19:43:00,
2013-01-10 12:48:00,56.1,55.3,29.81,SE,124,2.0,6.0,97,0.00,,,0.11,LWC2 V0.39 B123,2013-01-10 19:48:00,
2013-01-10 12:53:00,56.3,55.5,29.81,SE,139,1.0,5.0,97,0.00,,,0.11,LWC2 V0.39 B123,2013-01-10 19:53:00,
2013-01-10 12:58:00,56.8,55.7,29.81,SE,124,2.0,5.0,96,0.00,,,0.11,LWC2 V0.39 B123,2013-01-10 19:58:00,
2013-01-10 16:44:00,54.0,50.8,29.81,SW,228,6.0,6.0,89,0.00,,,0.11,LWC2 V0.39 B123,2013-01-10 23:44:00,
2013-01-10 16:49:00,53.7,50.5,29.81,SW,229,6.0,11.0,89,0.00,,,0.22,LWC2 V0.39 B123,2013-01-10 23:49:00,
2013-01-10 16:54:00,53.3,50.1,29.81,WSW,252,5.0,10.0,89,0.00,,,0.22,LWC2 V0.39 B123,2013-01-10 23:54:00,
2013-01-10 17:00:00,52.9,50.0,29.81,West,278,4.0,10.0,90,0.00,,,0.22,LWC2 V0.39 B123,2013-01-11 00:00:00,
2013-01-10 17:05:00,52.6,49.8,29.81,SW,221,5.0,8.0,90,0.00,,,0.22,LWC2 V0.39 B123,2013-01-11 00:05:00,
2013-01-10 17:10:00,52.3,49.8,29.81,SW,233,2.0,7.0,91,0.00,,,0.22,LWC2 V0.39 B123,2013-01-11 00:10:00,
2013-01-10 17:15:00,52.1,49.6,29.81,WSW,250,7.0,10.0,91,0.00,,,0.22,LWC2 V0.39 B123,2013-01-11 00:15:00,
2013-01-10 17:20:00,52.0,49.7,29.81,West,273,2.0,8.0,92,0.00,,,0.22,LWC2 V0.39 B123,2013-01-11 00:20:00,
2013-01-10 17:25:00,51.8,49.5,29.81,WNW,287,4.0,9.0,92,0.00,,,0.22,LWC2 V0.39 B123,2013-01-11 00:25:00,
2013-01-10 17:30:00,51.7,49.5,29.81,WSW,257,11.0,11.0,92,0.00,,,0.22,LWC2 V0.39 B123,2013-01-11 00:30:00,
2013-01-10 17:36:00,51.7,49.7,29.81,SW,226,8.0,13.0,93,0.00,,,0.22,LWC2 V0.39 B123,2013-01-11 00:36:00,
2013-01-10 17:41:00,51.7,49.7,29.81,West,274,7.0,9.0,93,0.00,,,0.22,LWC2 V0.39 B123,2013-01-11 00:41:00,
2013-01-10 17:46:00,51.6,49.6,29.81,WSW,253,6.0,9.0,93,0.00,,,0.22,LWC2 V0.39 B123,2013-01-11 00:46:00,
2013-01-10 17:51:00,51.5,49.5,29.80,WSW,242,6.0,8.0,93,0.00,,,0.22,LWC2 V0.39 B123,2013-01-11 00:51:00,
2013-01-10 17:56:00,51.4,49.4,29.80,SSW,204,4.0,5.0,93,0.00,,,0.22,LWC2 V0.39 B123,2013-01-11 00:56:00,
2013-01-10 18:01:00,51.3,49.3,29.80,SW,226,2.0,7.0,93,0.00,,,0.22,LWC2 V0.39 B123,2013-01-11 01:01:00,
2013-01-10 18:06:00,51.1,49.1,29.80,WSW,256,3.0,7.0,93,0.00,,,0.22,LWC2 V0.39 B123,2013-01-11 01:06:00,
2013-01-10 18:11:00,51.0,49.3,29.80,WSW,242,4.0,8.0,94,0.00,,,0.23,LWC2 V0.39 B123,2013-01-11 01:11:00,
2013-01-10 18:16:00,50.9,49.2,29.80,West,259,7.0,9.0,94,0.00,,,0.23,LWC2 V0.39 B123,2013-01-11 01:16:00,
2013-01-10 18:21:00,50.8,49.1,29.80,WSW,240,8.0,8.0,94,0.00,,,0.23,LWC2 V0.39 B123,2013-01-11 01:21:00,
2013-01-10 18:26:00,50.8,49.1,29.80,West,259,6.0,9.0,94,0.00,,,0.23,LWC2 V0.39 B123,2013-01-11 01:26:00,
2013-01-10 18:31:00,50.8,49.1,29.80,SW,219,9.0,13.0,94,0.00,,,0.23,LWC2 V0.39 B123,2013-01-11 01:31:00,
2013-01-10 18:36:00,50.8,49.1,29.80,West,262,7.0,13.0,94,0.00,,,0.23,LWC2 V0.39 B123,2013-01-11 01:36:00,
2013-01-10 18:41:00,50.8,49.1,29.80,West,260,4.0,11.0,94,0.00,,,0.23,LWC2 V0.39 B123,2013-01-11 01:41:00,
2013-01-10 18:46:00,50.7,49.0,29.80,SW,224,3.0,9.0,94,0.00,,,0.23,LWC2 V0.39 B123,2013-01-11 01:46:00,
2013-01-10 18:51:00,50.6,48.9,29.81,SW,233,7.0,13.0,94,0.00,,,0.23,LWC2 V0.39 B123,2013-01-11 01:51:00,
2013-01-10 18:56:00,50.6,48.9,29.81,SW,225,9.0,9.0,94,0.00,,,0.23,LWC2 V0.39 B123,2013-01-11 01:56:00,
2013-01-10 19:01:00,50.5,48.8,29.81,WSW,240,10.0,10.0,94,0.00,,,0.23,LWC2 V0.39 B123,2013-01-11 02:01:00,
2013-01-10 19:06:00,50.4,48.7,29.81,West,259,4.0,8.0,94,0.00,,,0.23,LWC2 V0.39 B123,2013-01-11 02:06:00,
2013-01-10 19:11:00,50.4,48.7,29.81,WSW,246,7.0,11.0,94,0.00,,,0.23,LWC2 V0.39 B123,2013-01-11 02:11:00,
2013-01-10 19:16:00,50.4,48.7,29.81,WSW,243,3.0,10.0,94,0.00,,,0.23,LWC2 V0.39 B123,2013-01-11 02:16:00,
2013-01-10 19:21:00,50.4,48.7,29.81,WSW,253,2.0,8.0,94,0.00,,,0.23,LWC2 V0.39 B123,2013-01-11 02:21:00,
2013-01-10 19:26:00,50.3,48.6,29.82,SW,228,8.0,10.0,94,0.00,,,0.23,LWC2 V0.39 B123,2013-01-11 02:26:00,
2013-01-10 19:31:00,50.3,48.6,29.81,SSW,197,3.0,4.0,94,0.00,,,0.23,LWC2 V0.39 B123,2013-01-11 02:31:00,
2013-01-10 19:36:00,50.3,48.6,29.81,SW,214,4.0,8.0,94,0.00,,,0.23,LWC2 V0.39 B123,2013-01-11 02:36:00,
2013-01-10 19:43:00,50.4,48.7,29.81,SW,223,5.0,9.0,94,0.00,,,0.23,LWC2 V0.39 B123,2013-01-11 02:43:00,
2013-01-10 19:48:00,50.5,48.8,29.81,WSW,243,2.0,5.0,94,0.00,,,0.23,LWC2 V0.39 B123,2013-01-11 02:48:00,
2013-01-10 19:53:00,50.5,48.8,29.82,SW,233,2.0,5.0,94,0.00,,,0.23,LWC2 V0.39 B123,2013-01-11 02:53:00,
2013-01-10 19:58:00,50.4,48.7,29.81,WSW,250,3.0,4.0,94,0.00,,,0.23,LWC2 V0.39 B123,2013-01-11 02:58:00,
2013-01-10 20:03:00,50.3,48.6,29.81,SW,219,0.0,4.0,94,0.00,,,0.23,LWC2 V0.39 B123,2013-01-11 03:03:00,
2013-01-10 20:08:00,50.3,48.6,29.81,WSW,238,3.0,4.0,94,0.00,,,0.23,LWC2 V0.39 B123,2013-01-11 03:08:00,
2013-01-10 20:13:00,50.2,48.5,29.82,WSW,243,3.0,5.0,94,0.00,,,0.23,LWC2 V0.39 B123,2013-01-11 03:13:00,
2013-01-10 20:18:00,50.1,48.4,29.83,WSW,238,3.0,5.0,94,0.00,,,0.23,LWC2 V0.39 B123,2013-01-11 03:18:00,
2013-01-10 20:23:00,50.1,48.4,29.82,West,277,1.0,3.0,94,0.00,,,0.23,LWC2 V0.39 B123,2013-01-11 03:23:00,
2013-01-10 20:28:00,50.2,48.5,29.82,West,273,1.0,5.0,94,0.00,,,0.23,LWC2 V0.39 B123,2013-01-11 03:28:00,
2013-01-10 20:33:00,50.2,48.8,29.82,SW,215,3.0,6.0,95,0.00,,,0.23,LWC2 V0.39 B123,2013-01-11 03:33:00,
2013-01-10 20:38:00,50.3,48.9,29.82,WSW,249,3.0,7.0,95,0.00,,,0.23,LWC2 V0.39 B123,2013-01-11 03:38:00,
2013-01-10 20:43:00,50.4,48.7,29.82,West,262,4.0,8.0,94,0.00,,,0.23,LWC2 V0.39 B123,2013-01-11 03:43:00,
2013-01-10 20:48:00,50.4,48.7,29.82,West,267,2.0,4.0,94,0.00,,,0.23,LWC2 V0.39 B123,2013-01-11 03:48:00,
2013-01-10 20:53:00,50.4,48.7,29.82,West,271,0.0,5.0,94,0.00,,,0.23,LWC2 V0.39 B123,2013-01-11 03:53:00,
2013-01-10 20:58:00,50.4,48.7,29.82,WSW,250,4.0,5.0,94,0.00,,,0.23,LWC2 V0.39 B123,2013-01-11 03:58:00,
2013-01-10 21:03:00,50.5,49.1,29.82,West,275,1.0,3.0,95,0.00,,,0.23,LWC2 V0.39 B123,2013-01-11 04:03:00,
2013-01-10 21:08:00,50.5,49.1,29.82,West,260,2.0,5.0,95,0.00,,,0.24,LWC2 V0.39 B123,2013-01-11 04:08:00,
2013-01-10 21:13:00,50.5,49.1,29.82,West,266,2.0,3.0,95,0.00,,,0.24,LWC2 V0.39 B123,2013-01-11 04:13:00,
2013-01-10 21:18:00,50.6,49.2,29.82,SW,236,4.0,6.0,95,0.00,,,0.24,LWC2 V0.39 B123,2013-01-11 04:18:00,
2013-01-10 21:23:00,50.7,49.3,29.82,West,262,3.0,7.0,95,0.00,,,0.25,LWC2 V0.39 B123,2013-01-11 04:23:00,
2013-01-10 21:28:00,50.8,49.1,29.83,SSW,194,2.0,8.0,94,0.16,,,0.26,LWC2 V0.39 B123,2013-01-11 04:28:00,
2013-01-10 21:33:00,50.9,49.2,29.82,WSW,255,4.0,8.0,94,0.14,,,0.29,LWC2 V0.39 B123,2013-01-11 04:33:00,
2013-01-10 21:39:00,51.0,49.3,29.83,WSW,250,1.0,5.0,94,0.16,,,0.30,LWC2 V0.39 B123,2013-01-11 04:39:00,
2013-01-10 21:43:00,51.0,49.3,29.83,SSW,204,3.0,9.0,94,0.18,,,0.31,LWC2 V0.39 B123,2013-01-11 04:43:00,
2013-01-10 21:49:00,51.0,49.3,29.83,SSW,201,3.0,7.0,94,0.07,,,0.31,LWC2 V0.39 B123,2013-01-11 04:49:00,
2013-01-10 21:53:00,51.1,49.4,29.83,West,277,4.0,9.0,94,0.05,,,0.31,LWC2 V0.39 B123,2013-01-11 04:53:00,
2013-01-10 21:58:00,51.1,49.1,29.83,SSW,194,2.0,8.0,93,0.04,,,0.32,LWC2 V0.39 B123,2013-01-11 04:58:00,
2013-01-10 22:04:00,51.1,49.1,29.83,West,262,2.0,10.0,93,0.04,,,0.32,LWC2 V0.39 B123,2013-01-11 05:04:00,
2013-01-10 22:05:00,51.2,49.2,29.83,SW,231,4.0,10.0,93,0.04,,,0.32,LWC2 V0.39 B123,2013-01-11 05:05:00,
2013-01-10 22:10:00,51.2,49.2,29.83,West,264,5.0,5.0,93,0.05,,,0.33,LWC2 V0.39 B123,2013-01-11 05:10:00,
2013-01-10 22:12:00,51.2,49.2,29.83,WSW,246,1.0,11.0,93,0.05,,,0.33,LWC2 V0.39 B123,2013-01-11 05:12:00,
2013-01-10 22:17:00,51.3,49.3,29.83,SW,233,5.0,12.0,93,0.05,,,0.33,LWC2 V0.39 B123,2013-01-11 05:17:00,
2013-01-10 22:22:00,51.4,49.2,29.84,West,276,3.0,11.0,92,0.04,,,0.33,LWC2 V0.39 B123,2013-01-11 05:22:00,
2013-01-10 22:27:00,51.5,49.3,29.83,SW,236,9.0,9.0,92,0.00,,,0.33,LWC2 V0.39 B123,2013-01-11 05:27:00,
2013-01-10 22:32:00,51.5,49.3,29.83,WSW,240,6.0,8.0,92,0.00,,,0.33,LWC2 V0.39 B123,2013-01-11 05:32:00,
2013-01-10 22:37:00,51.5,49.3,29.84,SW,215,4.0,6.0,92,0.00,,,0.33,LWC2 V0.39 B123,2013-01-11 05:37:00,
2013-01-10 22:42:00,51.5,49.3,29.84,West,266,4.0,7.0,92,0.80,,,0.36,LWC2 V0.39 B123,2013-01-11 05:42:00,
2013-01-10 22:47:00,51.5,49.3,29.84,SW,222,2.0,9.0,92,0.10,,,0.36,LWC2 V0.39 B123,2013-01-11 05:47:00,
2013-01-10 22:52:00,51.6,49.4,29.84,WSW,253,3.0,8.0,92,0.06,,,0.36,LWC2 V0.39 B123,2013-01-11 05:52:00,
2013-01-10 22:57:00,51.6,49.4,29.84,West,280,0.0,3.0,92,0.04,,,0.00,LWC2 V0.39 B123,2013-01-11 05:57:00,
2013-01-10 23:02:00,51.4,49.2,29.84,West,273,1.0,5.0,92,0.17,,,0.00,LWC2 V0.39 B123,2013-01-11 06:02:00,
2013-01-10 23:07:00,51.3,49.1,29.83,WSW,250,0.0,9.0,92,0.14,,,0.00,LWC2 V0.39 B123,2013-01-11 06:07:00,
2013-01-10 23:12:00,51.1,48.9,29.82,WSW,246,4.0,7.0,92,0.09,,,0.00,LWC2 V0.39 B123,2013-01-11 06:12:00,
2013-01-10 23:17:00,50.9,48.7,29.83,WSW,256,4.0,6.0,92,0.05,,,0.00,LWC2 V0.39 B123,2013-01-11 06:17:00,
2013-01-10 23:22:00,50.8,48.6,29.82,West,260,2.0,5.0,92,0.04,,,0.00,LWC2 V0.39 B123,2013-01-11 06:22:00,
2013-01-10 23:27:00,50.6,48.4,29.82,West,280,1.0,6.0,92,0.00,,,0.00,LWC2 V0.39 B123,2013-01-11 06:27:00,
2013-01-10 23:33:00,50.6,48.4,29.82,WSW,243,4.0,6.0,92,0.00,,,0.00,LWC2 V0.39 B123,2013-01-11 06:33:00,
2013-01-10 23:37:00,50.5,48.3,29.82,West,262,2.0,5.0,92,0.00,,,0.00,LWC2 V0.39 B123,2013-01-11 06:37:00,
2013-01-10 23:42:00,50.5,48.3,29.82,WSW,253,5.0,6.0,92,0.00,,,0.00,LWC2 V0.39 B123,2013-01-11 06:42:00,
2013-01-10 23:47:00,50.4,48.5,29.82,West,277,1.0,8.0,93,0.00,,,0.00,LWC2 V0.39 B123,2013-01-11 06:47:00,
2013-01-10 23:52:00,50.2,48.0,29.82,West,276,1.0,3.0,92,0.00,,,0.00,LWC2 V0.39 B123,2013-01-11 06:52:00,
2013-01-10 23:57:00,50.0,48.1,29.82,West,267,2.0,4.0,93,0.00,,,0.00,LWC2 V0.39 B123,2013-01-11 06:57:00,